Timeline UpdatesTrip UpdatesNews PostsPvt Posts♥♥Travel TipsAdmin PostsConv PostsFollowed PostsChat RequestsBlog PostsPNR Posts

Disclaimer
Search
 
 
Mon Nov 24, 2014 02:41:25 ISTHomeTrainsΣChainsAtlasPNRForumGalleryNewsFAQTripsMembersLoginFeedback
No Recent News for this Train
Other Trains in the News **new
Latest...
running with Inspection Car is of NR [0611/A]; since 2 weeks
Wed Jul 23, 2014 (11:12AM)
⇐ Return Journey: Train# 13483

13484/Farakka Express (via Faizabad)

Time-Table HAS CHANGED.
Sep 03 2014 (1:27PM)
Change Departure Station:
Change Arrival Station:
Post a Train Travel TipPost a Train Travel Tip **new
Post a Comment/Question/Picture/VideoPost a Comment/Question/Picture/Video
Pantry/Catering
✓ Pantry Car Avbl
✓ Catering Avbl
RSA - Rake Sharing
13413/13414/04031/04032
Rake/Coach Composition
LOCO-SLR-UR-UR-S9-S8-S7-S6-S5-S4-S3-S2-S1-PC-B1-A1-UR-UR-UR-UR-UR-SLR-HPCV http://indiarailinfo.com/blog/post/1168926 by manu
Loco
DLI - LKO -> GZB[NR] WAP-5/7; LKO - MLDT ->...
Read more...
LKO[NR] WDM-3D/3A
News    PNR    Forum    Time-Table    Availability    Fare Chart    Map    Arr/Dep History    Trips    Gallery    ΣChains    X/O    Timeline    
Travel Time: 22h 57m    39 halts    Distance: 1059 km    Avg Speed: 46 km/hr
Type: Mail/Express
Zone: ER/Eastern
Departs @ 21:45 (Avg 1m late)
Platform# 7
S T TF 
Old Delhi Junction/DLI 
Arrives @ 20:42 +1 night (Avg 1h 25m late)
Platform# 2
 M W FS
Patna Junction/PNBE 

39 halts. 175 intermediate Stations between Old Delhi Junction and Patna Junction

Show ALL intermediate Stations  Show Old Time-Table

#TrkCodeStation NameX/OArrivesAvgDepartsAvgHaltPFDay#KmSpeedElevZoneAddress
1/==/DLIOld Delhi Junction (16)»  -21:50 21:45+1710.031219mNRNear Chandni Chowk Metro Station, Delhi NCT
2/==/GZBGhaziabad Junction (6)  22:26 22:24+522:28 22:26+52m2120.164217mNRGhaziabad, Uttar Pradesh
3/==/KRJKhurja Junction (4)  23:25+4223:28+463m--182.742199mNCRBulandshahr, Uttar Pradesh
4/==/ALJNAligarh Junction (4)  00:30+2700:35+285m22126.286192mNCRAligarh, Uttar Pradesh
5/==/HRSHathras Junction (3)X  00:56+3901:01+385m--2156.459183mNCRMahamaya Nagar(05722-242803), Uttar Pradesh
6/==/TDLTundla Junction (5)X  01:50+3301:58+378m32204.450167mNCRDistt.Firozabad, Uttar Pradesh
7/==/FZDFirozabad (4)X  02:18+3802:20+432m22220.963164mNCRFirozabad, Uttar Pradesh
8/==/SKBShikohabad Junction (4)X  02:39+4002:41+442m22240.885166mNCRDistrict Firozabad, Uttar Pradesh
9/==/ETWEtawah (5)  03:20+4803:22+502m32296.265154mNCRDistt. Etawah, Uttar Pradesh
10/==/CNBKanpur Central (10)X  05:30+4105:45+3715m72435.547128mNCRKANPUR-208 001, Uttar Pradesh
11/==/ONUnnao Junction (5)  06:06 06:07+1:0406:08 06:09+1:052m--2453.046129mNRUnnao, Uttar Pradesh
12/==/LKOLucknow Charbagh NR (9)X  07:20+5607:45+5925m42507.549 NR226004, Uttar Pradesh
13/==/BBKBarabanki Junction (4)X  08:20+1:2008:22+1:232m--2536.152 NRPin-225001, Uttar Pradesh
14|--|DYDDaryabad  09:06+1:2209:07+1:231m--2574.169116mNRFaizabad Rd, Uttar Pradesh
15|--|RDLRudauli (2)  09:27+1:2509:28+1:261m--2597.272112mNRRudauli, Uttar Pradesh
16|--|SLWSohwal  09:47+1:3009:48+1:301m--2620.142107mNRFaizabad Rd, Uttar Pradesh
17|--|FDFaizabad Junction (5)  10:10+1:3110:15+1:335m--2635.313104mNRFaizabad, Uttar Pradesh
18|--|ACNDAcharya Narendra Dev NagarX  10:25+1:3410:26+1:351m--2637.512104mNRFaizabad, Uttar Pradesh
19|--|AYAyodhya Junction (3)  10:48+1:2210:49+1:231m12642.06698mNRAyodhya, Uttar Pradesh
20|--|GGJGoshainGanj (3)  11:18+1:2111:19+1:221m--2673.87498mNRGoshainganj, Uttar Pradesh
21|--|ABPAkbarpur Junction (2)  11:37+1:2411:39+1:252m--2696.07292mNRAkbarpur, Uttar Pradesh
22|--|MLPRMalipur (2)  11:55+1:3111:56+1:321m--2715.16292mNRMalipur, Uttar Pradesh
23|--|SHGShahganj Junction (4)X  12:20+1:3712:25 12:27+1:355 7m--2740.15390mNRShahganj, Uttar Pradesh
24|--|JNUJaunpur Junction (5)  13:05+1:3113:07+1:332m12773.42383mNRJaunpur, Uttar Pradesh
25|--|ZBDZafarabad Junction (4)X  13:24+1:3213:25+1:331m--2779.83683mNRNational Highway 56, Uttar Pradesh
26/==/JLLJalalGanj (2)  13:45+1:3013:46+1:301m--2791.93487mNRJalalganj Railway Station, Uttar Pradesh
27/==/BSBVaranasi Junction (9)  15:00 14:55+1:1215:15+1:1115 20m82831.01882mNRVaranasi 221002, Uttar Pradesh
28/==/MGSMughal Sarai Junction (8)X  16:10+1:0316:25+1:0215m--2847.57483mECRDistt: Chandauli Pin 232101, Uttar Pradesh
29/==/ZNAZamania (2)X  17:01+1:2017:03+1:202m--2891.76777mECRGhazipur, Uttar Pradesh
30/==/DLNDildarnagar Junction (2)  17:15+1:2117:17+1:222m--2905.25272mECRDildarnagar, Uttar Pradesh
31/==/BWHBhadaura (2)17:26+1:2217:28+1:212m--2913.06169mECRGhazipur, Uttar Pradesh
32/==/GMRGahmar (2)  17:36+1:1917:38+1:192m--2921.27968mECRDistt: Ghazipur, Uttar Pradesh
33/==/CSAChausa (2)X  17:45+1:2417:47+1:262m--2930.56068mECRState Highway 14, Bihar
34/==/BXRBuxar (3)X  17:58+1:2318:03+1:225m--2941.48967mECRBuxar, Bihar
35/==/DUREDumraon (3)X  18:14+1:2118:16+1:212m--2957.78070mECRDumraon, Bihar
36/==/RPRRaghunathpur (4)X  18:28+1:3818:30+1:382m--2973.77469mECRRaghunathpur, Bihar
37/==/BEABihiya (3)  18:42+1:3818:44+1:382m--2988.57167mECRBehea, Bihar
38/==/ARAAra Junction (3)  19:02+1:4019:07+1:385m--21009.98963mECRDistt: Bhojpur Ph 06182-233411, Bihar
39/==/BTABihta (2)XO  19:22+1:5419:24+1:552m--21032.13462mECRDistt: Patna, Bihar
40/==/DNRDanapur (5)  19:55+1:4420:05+1:4810m--21049.41558mECRKhagaul, Bihar
41/==/PNBEPatna Junction (10)•  20:42+1:2520:52+1:2910m221058.82257mECRPatna 800001, Bihar
42/==/RJPBRajendra Nagar Bihar (4)X  20:59+1:1721:01+1:172m--21061.43455mECRPatna 800001, Bihar
43/==/PNCPatna Saheb (3)  21:14+1:3921:16+1:402m--21068.74159mECRPatna 800008, Bihar
44/==/FUTFatwa (6)X  21:34+1:4621:36+1:482m--21080.95653mECRPatna, Bihar
45/==/BKPBakhtiyarpur Junction (5)  22:01+1:5022:05+1:494m--21104.23751mECRPatna, Bihar
46/==/BARHBarh (3)  22:34+1:4122:36+1:412m--21122.37049mECRBarh, Bihar
47/==/MKAMokama Junction (4)  22:58+1:4123:03+1:385m--21148.17148mECRPatna, Bihar
48/==/BRYABarhiya (3)  23:18+1:5123:20+1:512m--21165.82247mECRBarahiya, Bihar
49/==/KIULKiul Junction (5)  00:05+1:3400:10+1:365m--31182.26653mECRDist. Lakhisarai, Bihar
50|==|AHAAbhaipur (3)  00:31+1:4300:33+1:432m--31205.26052mERAbhaipur, Bihar
51|=-|JMPJamalpur Junction (4)X  00:55+1:4901:05+1:5110m131227.16159mERDist: Munger 06344-243101, Bihar
52|==|BUPBariarpur (3)X  01:16+2:0001:18+2:002m--31238.25442mERMunger, Bihar
53|==|SGGSultanGanj (3)  01:38+2:0201:40+2:022m--31256.14742mERSultanganj, Bihar
54|==!BGPBhagalpur Junction (6)  02:12+1:4102:22+1:4610m--31281.15649mERBhagalpur, Bihar
55!==!SBOSabaur (3)  02:30+2:1202:32+2:142m--31288.66142mERSabour, Bihar
56!==!CLGKahalgaon (2)  02:54+2:2702:56+2:322m131311.23744mERBhagalpur, Bihar
57!==!PPTPirpainti (2)  03:29+2:2803:31+2:302m--31331.52653mERBhagalpur, Bihar
58!==!SBGSahibganj Junction (3)  04:25+2:0904:33+2:188m131355.18138mERSahibganj, Jharkhand
59!==|TPHTinpahar Junction (3)  05:00 05:01+2:4505:02 05:03+2:452m231392.83545mERBamangawan, Jharkhand
60|==|BHWBarharwa Junction (3)  05:32+2:2905:36+2:304m231409.54036mERBarharwa, Jharkhand
61%==%NFKNew Farakka Junction (3)  06:03+2:4506:08+2:415m231427.52932mERDist - Murshidabad, West Bengal
62%==%MLDTMalda Town (5)  07:20+3:25---31462.6-30mERDist - Malda, West Bengal
Scroll to Top
Scroll to Bottom